Weather History for Spirit of St Louis, MO

Change the Weather History Date:

Saturday, June 29, 2013

  Actual Average Record
Temperature  
Mean Temperature 74 °F -  
Max Temperature 84 °F 85 °F 106 °F (2012)
Min Temperature 66 °F 63 °F 53 °F (2004)
Cooling Degree Days 9    
Growing Degree Days 24 (Base 50)    
Moisture  
Dew Point 61 °F    
Average Humidity 66    
Maximum Humidity 83    
Minimum Humidity 49    
Precipitation  
Precipitation 0.08 in - - ()
Sea Level Pressure  
Sea Level Pressure 29.69 in    
Wind  
Wind Speed 9 mph (WNW)    
Max Wind Speed 20 mph    
Max Gust Speed 41 mph    
Visibility 10 miles    
Events Rain , Thunderstorm    
Averages and records for this station are not official NWS values.
T = Trace of Precipitation, MM = Missing Value Source: NWS Daily Summary

Daily Weather History Graph

Daily Weather History Graph

Search for Another Location

Airport:

Trip Planner

Search our weather history database for the weather conditions in past years. The results will help you decide how hot, cold, wet, or windy it might be!

Date:

Astronomy

Jun. 29, 2013 Rise Set
Actual Time 5:40 AM CDT 8:31 PM CDT
Civil Twilight 5:09 AM CDT 9:03 PM CDT
Nautical Twilight 4:29 AM CDT 9:42 PM CDT
Astronomical Twilight 3:43 AM CDT 10:28 PM CDT
Moon 12:05 AM CDT (6/29) 12:47 PM CDT (6/29)
Length of Visible Light 15h 53m
Length of Day
14h 50m
Waning Gibbous, 55% of the Moon is Illuminated
Jun 29
Waning Gibbous
Jun 29
Last Quarter
Jul 8
New
Jul 15
First Quarter
Jul 22
Full

Hourly Weather History & Observations

Time (CDT) Temp. Heat Index Dew Point Humidity Pressure Visibility Wind Dir Wind Speed Gust Speed Precip Events Conditions
12:54 AM 70.0 °F - 59.0 °F 68% 29.69 in 10.0 mi West 6.9 mph - N/A   Scattered Clouds
1:54 AM 71.1 °F - 60.1 °F 68% 29.70 in 10.0 mi West 5.8 mph - N/A   Overcast
2:54 AM 69.1 °F - 60.1 °F 73% 29.69 in 10.0 mi West 5.8 mph - N/A   Clear
3:54 AM 66.9 °F - 60.1 °F 79% 29.69 in 10.0 mi WSW 6.9 mph - N/A   Clear
4:54 AM 66.0 °F - 60.1 °F 81% 29.69 in 10.0 mi WSW 5.8 mph - N/A   Clear
5:54 AM 66.0 °F - 60.1 °F 81% 29.70 in 10.0 mi WSW 8.1 mph - N/A   Partly Cloudy
6:54 AM 69.1 °F - 60.1 °F 73% 29.69 in 10.0 mi West 5.8 mph - N/A   Clear
7:54 AM 73.0 °F - 60.1 °F 64% 29.69 in 10.0 mi WNW 9.2 mph - N/A   Clear
8:54 AM 75.9 °F - 62.1 °F 62% 29.69 in 10.0 mi WNW 12.7 mph - N/A   Clear
9:54 AM 77.0 °F - 61.0 °F 58% 29.68 in 10.0 mi NW 19.6 mph 25.3 mph N/A   Partly Cloudy
10:54 AM 79.0 °F - 62.1 °F 56% 29.68 in 10.0 mi WNW 13.8 mph 25.3 mph N/A   Partly Cloudy
11:54 AM 78.1 °F - 60.1 °F 54% 29.68 in 10.0 mi WNW 16.1 mph - N/A   Mostly Cloudy
12:54 PM 81.0 °F 81.7 °F 61.0 °F 50% 29.67 in 10.0 mi NW 16.1 mph 23.0 mph N/A   Partly Cloudy
1:54 PM 82.0 °F 83.0 °F 62.1 °F 51% 29.65 in 10.0 mi NW 11.5 mph 23.0 mph N/A   Partly Cloudy
2:49 PM 82.4 °F 83.4 °F 62.6 °F 51% 29.66 in 10.0 mi NW 16.1 mph 20.7 mph N/A Thunderstorm Mostly Cloudy
2:54 PM 82.9 °F 83.7 °F 62.1 °F 49% 29.64 in 10.0 mi NW 16.1 mph - N/A Thunderstorm Mostly Cloudy
3:07 PM 71.6 °F - 55.4 °F 57% 29.69 in 7.0 mi NNE 11.5 mph 41.4 mph 0.02 in Rain , Thunderstorm Light Thunderstorms and Rain
3:35 PM 71.6 °F - 62.6 °F 73% 29.68 in 10.0 mi Calm Calm - 0.08 in   Partly Cloudy
3:46 PM 75.2 °F - 62.6 °F 65% 29.68 in 10.0 mi Variable 3.5 mph - 0.08 in Thunderstorm Mostly Cloudy
3:54 PM 78.1 °F - 64.0 °F 62% 29.65 in 10.0 mi NNW 10.4 mph - 0.08 in Thunderstorm Mostly Cloudy
4:21 PM 75.2 °F - 62.6 °F 65% 29.69 in 10.0 mi West 6.9 mph - 0.00 in Thunderstorm Mostly Cloudy
4:26 PM 75.2 °F - 62.6 °F 65% 29.69 in 10.0 mi West 8.1 mph - 0.00 in Thunderstorm Mostly Cloudy
4:47 PM 78.8 °F - 64.4 °F 61% 29.69 in 10.0 mi NNW 9.2 mph - 0.00 in   Mostly Cloudy
4:54 PM 79.0 °F - 63.0 °F 58% 29.67 in 10.0 mi NNW 11.5 mph - 0.00 in   Mostly Cloudy
5:54 PM 73.9 °F - 60.1 °F 62% 29.68 in 10.0 mi NNW 9.2 mph - N/A   Scattered Clouds
6:54 PM 71.1 °F - 59.0 °F 66% 29.68 in 10.0 mi NW 6.9 mph - 0.00 in   Mostly Cloudy
7:54 PM 70.0 °F - 60.1 °F 71% 29.69 in 10.0 mi WNW 6.9 mph - N/A   Mostly Cloudy
8:54 PM 68.0 °F - 60.1 °F 76% 29.71 in 10.0 mi NW 6.9 mph - N/A   Scattered Clouds
9:54 PM 68.0 °F - 61.0 °F 78% 29.72 in 10.0 mi NW 5.8 mph - N/A   Clear
10:54 PM 68.0 °F - 62.1 °F 81% 29.72 in 10.0 mi NNW 8.1 mph - N/A   Scattered Clouds
11:22 PM 68.0 °F - 62.6 °F 83% 29.74 in 10.0 mi NW 6.9 mph - N/A   Mostly Cloudy
11:54 PM 68.0 °F - 62.1 °F 81% 29.73 in 10.0 mi NNW 10.4 mph - N/A   Overcast